Regional Weather Roundup
Issued by NWS

Home | Current Version | Previous Version | Graphics & Text | Print | Product List | Glossary On
Versions: 1 2 3 4 5 6 7 8 9 10 11 12 13 14 15 16 17 18 19 20 21 22 23 24 25 26 27 28 29 30 31 32 33 34 35 36 37 38 39 40 41 42 43 44 45 46 47 48 49 50
000
ASUS45 KBOU 290007
RWRCO

WEATHER ROUNDUP FOR COLORADO
NATIONAL WEATHER SERVICE DENVER/BOULDER CO
500 PM MST FRI NOV 28 2014

NOTE: "FAIR" INDICATES FEW OR NO CLOUDS BELOW 12000 FEET WITH NO
SIGNIFICANT WEATHER AND/OR OBSTRUCTIONS TO VISIBILITY.

COZ001>005-013-030-031-290100-
...NORTHWEST COLORADO...

CITY           SKY/WX    TMP DP  RH WIND       PRES   REMARKS
CRAIG          PTCLDY    40  22  48 CALM      29.96F
HAYDEN         PTCLDY    39  19  45 E7        29.98F
MEEKER         MOCLDY    49  18  29 VRB6      30.00F
MOUNT WERNER   NOT AVBL
STEAMBOAT SPGS PTCLDY    32  25  76 CALM      30.00S
WALDEN         PTCLDY    41  14  33 S10       30.02F
$$

COZ006>008-011-290100-
...WEST CENTRAL VALLEYS...

CITY           SKY/WX    TMP DP  RH WIND       PRES   REMARKS
GRAND JUNCTION MOCLDY    42  24  49 CALM      30.02F
MONTROSE       PTCLDY    50  23  34 CALM      30.05S
EAGLE          PTCLDY    46  21  36 W8        30.04S
RIFLE          MOCLDY    42  29  59 SE3       30.03S
DELTA          PTCLDY    49  23  35 SW5       30.03S
NUCLA          PTCLDY    55  12  18 CALM      30.08F
$$

COZ017>023-064>068-290100-
...SOUTHWEST COLORADO...

CITY           SKY/WX    TMP DP  RH WIND       PRES   REMARKS
DURANGO        CLEAR     53  12  19 SW7       30.12F
CORTEZ         CLEAR     47  22  37 CALM      30.09F
PAGOSA SPRINGS CLEAR     46   7  20 CALM      30.17R
TELLURIDE      PTCLDY    48   4  16 CALM      30.22S
WOLF CREEK PAS CLEAR     30   9  40 MISG      30.29S
$$

COZ009-010-012-014-032>034-037-058>063-290100-
...CENTRAL COLORADO...

CITY           SKY/WX    TMP DP  RH WIND       PRES   REMARKS
ASPEN          PTCLDY    39  20  46 S6        30.07S
BUENA VISTA    CLEAR     49   5  16 W8        30.05S
COPPER MTN     PTCLDY    34   3  27 SW17G28   30.22F WCI  23
BERTHOUD PASS  NOT AVBL
COTTONWOOD PAS CLEAR     46  -8  10 W28G48    30.10S
GUNNISON       CLEAR     32  19  59 CALM      30.16F
KREMMLING      MOCLDY    41  16  36 CALM      30.04S
LEADVILLE      PTCLDY    37   7  28 NW7       30.12F
MONARCH PASS   CLEAR     32   5  32 W47G59    30.31F WCI  15
SALIDA         CLEAR     53   2  12 SW3       30.12S
SUNLIGHT       PTCLDY    34  18  51 CALM      30.19F
WILKERSON PASS PTCLDY    37   0  20 W13G25    30.17F
$$

COZ069>075-290100-
...SAN LUIS VALLEY/SANGRE DE CRISTO MOUNTAINS...

CITY           SKY/WX    TMP DP  RH WIND       PRES   REMARKS
ALAMOSA        CLEAR     47   6  18 SW12      30.07R
LA VETA PASS   PTCLDY    39   7  26 S14G28    30.12S
SAGUACHE       CLEAR     41  16  36 N5        30.10S
$$

COZ035-036-038>040-290100-
...NORTHERN COLORADO FRONT RANGE...

CITY           SKY/WX    TMP DP  RH WIND       PRES   REMARKS
DENVER INTL AP CLOUDY    51  19  28 S10       29.82S
DMNS CITY PARK   N/A     66   6   9 W16G31    29.80S
AURORA         MOCLDY    58  14  17 S3        29.84S
FRONT RANGE AP NOT AVBL
ERIE MUNI ARPT CLOUDY    65   4   9 SW17G26   29.80R
BOULDER MUN AP CLOUDY    64  10  12 SW8       29.80R
CENTENNIAL     CLOUDY    55  20  25 SW5       29.84S
BROOMFIELD     MOCLDY    63  10  13 W6        29.84S
FORT COLLINS   CLOUDY    63  12  14 W20G33    29.81S
LONGMONT       CLOUDY    64  10  12 W7G21     29.81R
$$

COZ041-046-047-076>085-087-088-290100-
...PIKES PEAK/PALMER DIVIDE AND SOUTHERN FOOTHILLS...

CITY           SKY/WX    TMP DP  RH WIND       PRES   REMARKS
COLO. SPRINGS  CLOUDY    64   2   8 N15       29.88F
A. F. ACADEMY  CLOUDY    61  -1   8 NW12      29.91R
ELLICOTT       NOT AVBL
FALCON         NOT AVBL
FORT CARSON    CLOUDY    62   5  10 SW13      29.87R
LIMON          CLOUDY    45  14  28 CALM      29.84F
MONUMENT HILL  CLOUDY    52   9  17 W8        29.91F
TRINIDAD       CLOUDY    51  31  46 NW7       29.92S
$$

COZ042>045-048>051-090-091-290100-
...NORTHEAST COLORADO...

CITY           SKY/WX    TMP DP  RH WIND       PRES   REMARKS
GREELEY ARPT   CLOUDY    48  27  43 W3        29.81R
AKRON          CLOUDY    52  20  28 SW8       29.79F
BURLINGTON     CLOUDY    54  17  23 S8        29.80S
WRAY           MOCLDY    56  20  25 SW7       29.76S
STERLING       CLOUDY    46  32  57 W6        29.76S
HOLYOKE        MOCLDY    46  28  49 W7        29.75F
FORT MORGAN    CLOUDY    55  22  27 CALM      29.80S
$$

COZ086-089-092>099-290100-
...SOUTHEAST COLORADO...

CITY           SKY/WX    TMP DP  RH WIND       PRES   REMARKS
PUEBLO         CLOUDY    65  11  12 SW10      29.82F
LA JUNTA       CLOUDY    59  15  18 SW7       29.80F
LAMAR          CLOUDY    50  19  29 S12       29.78S
SPRINGFIELD      N/A     53  13  20 SW6       29.84F
$$



USA.gov is the U.S. government's official web portal to all federal, state and local government web resources and services.